Time,TemperatureF,DewpointF,PressureIn,WindDirection,WindDirectionDegrees,WindSpeedMPH,WindSpeedGustMPH,Humidity,HourlyPrecipIn,Conditions,Clouds,dailyrainin,SolarRadiationWatts/m^2,SoftwareType,DateUTC
2013-10-25 00:22:00,46.0,34.0,-100.00,South,180,4.0,8.0,63,0.00,,,0.00,49.000000,,2013-10-25 00:22:00,
2013-10-25 00:33:00,46.0,34.0,-100.00,South,180,4.0,8.0,63,0.00,,,0.00,49.000000,,2013-10-25 00:33:00,
2013-10-25 00:42:00,46.0,34.0,-100.00,South,180,4.0,8.0,63,0.00,,,0.00,49.000000,,2013-10-25 00:42:00,
2013-10-25 00:52:00,46.0,34.0,-100.00,South,180,4.0,8.0,63,0.00,,,0.00,49.000000,,2013-10-25 00:52:00,
2013-10-25 01:22:00,43.0,34.0,-100.00,ENE,73,4.0,7.0,71,0.00,,,0.00,1.000000,,2013-10-25 01:22:00,
2013-10-25 01:32:00,43.0,34.0,-100.00,ENE,73,4.0,7.0,71,0.00,,,0.00,1.000000,,2013-10-25 01:32:00,
2013-10-25 01:43:00,43.0,34.0,-100.00,ENE,73,4.0,7.0,71,0.00,,,0.00,1.000000,,2013-10-25 01:43:00,
2013-10-25 01:53:00,43.0,34.0,-100.00,ENE,73,4.0,7.0,71,0.00,,,0.00,1.000000,,2013-10-25 01:53:00,
2013-10-25 02:23:00,42.0,35.0,-100.00,East,87,4.0,10.0,75,0.00,,,0.00,0.000000,,2013-10-25 02:23:00,
2013-10-25 02:32:00,42.0,35.0,-100.00,East,87,4.0,10.0,75,0.00,,,0.00,0.000000,,2013-10-25 02:32:00,
2013-10-25 02:42:00,42.0,35.0,-100.00,East,87,4.0,10.0,75,0.00,,,0.00,0.000000,,2013-10-25 02:42:00,
2013-10-25 02:52:00,42.0,35.0,-100.00,East,87,4.0,10.0,75,0.00,,,0.00,0.000000,,2013-10-25 02:52:00,
2013-10-25 03:23:00,42.0,35.0,-100.00,East,96,4.0,11.0,76,0.00,,,0.00,0.000000,,2013-10-25 03:23:00,
2013-10-25 03:34:00,42.0,35.0,-100.00,East,96,4.0,11.0,76,0.00,,,0.00,0.000000,,2013-10-25 03:34:00,
2013-10-25 03:44:00,42.0,35.0,-100.00,East,96,4.0,11.0,76,0.00,,,0.00,0.000000,,2013-10-25 03:44:00,
2013-10-25 03:54:00,42.0,35.0,-100.00,East,96,4.0,11.0,76,0.00,,,0.00,0.000000,,2013-10-25 03:54:00,
2013-10-25 04:24:00,40.0,34.0,-100.00,NE,51,2.0,7.0,79,0.00,,,0.00,0.000000,,2013-10-25 04:24:00,
2013-10-25 04:34:00,40.0,34.0,-100.00,NE,51,2.0,7.0,79,0.00,,,0.00,0.000000,,2013-10-25 04:34:00,
2013-10-25 04:44:00,40.0,34.0,-100.00,NE,51,2.0,7.0,79,0.00,,,0.00,0.000000,,2013-10-25 04:44:00,
2013-10-25 04:54:00,40.0,34.0,-100.00,NE,51,2.0,7.0,79,0.00,,,0.00,0.000000,,2013-10-25 04:54:00,
2013-10-25 05:21:00,39.0,34.0,-100.00,ESE,110,2.0,6.0,81,0.00,,,0.00,0.000000,,2013-10-25 05:21:00,
2013-10-25 05:32:00,39.0,34.0,-100.00,ESE,110,2.0,6.0,81,0.00,,,0.00,0.000000,,2013-10-25 05:32:00,
2013-10-25 05:42:00,39.0,34.0,-100.00,ESE,110,2.0,6.0,81,0.00,,,0.00,0.000000,,2013-10-25 05:42:00,
2013-10-25 05:51:00,39.0,34.0,-100.00,ESE,110,2.0,6.0,81,0.00,,,0.00,0.000000,,2013-10-25 05:51:00,
2013-10-25 06:21:00,40.0,33.0,-100.00,ESE,103,2.0,4.0,76,0.00,,,0.00,0.000000,,2013-10-25 06:21:00,
2013-10-25 06:31:00,40.0,33.0,-100.00,ESE,103,2.0,4.0,76,0.00,,,0.00,0.000000,,2013-10-25 06:31:00,
2013-10-25 06:41:00,40.0,33.0,-100.00,ESE,103,2.0,4.0,76,0.00,,,0.00,0.000000,,2013-10-25 06:41:00,
2013-10-25 06:51:00,40.0,33.0,-100.00,ESE,103,2.0,4.0,76,0.00,,,0.00,0.000000,,2013-10-25 06:51:00,
2013-10-25 07:21:00,39.0,33.0,-100.00,North,9,3.0,5.0,79,0.00,,,0.00,0.000000,,2013-10-25 07:21:00,
2013-10-25 07:31:00,39.0,33.0,-100.00,North,9,3.0,5.0,79,0.00,,,0.00,0.000000,,2013-10-25 07:31:00,
2013-10-25 07:41:00,39.0,33.0,-100.00,North,9,3.0,5.0,79,0.00,,,0.00,0.000000,,2013-10-25 07:41:00,
2013-10-25 07:51:00,39.0,33.0,-100.00,North,9,3.0,5.0,79,0.00,,,0.00,0.000000,,2013-10-25 07:51:00,
2013-10-25 08:21:00,39.0,34.0,-100.00,NNE,13,3.0,4.0,81,0.00,,,0.00,0.000000,,2013-10-25 08:21:00,
2013-10-25 08:31:00,39.0,34.0,-100.00,NNE,13,3.0,4.0,81,0.00,,,0.00,0.000000,,2013-10-25 08:31:00,
2013-10-25 08:41:00,39.0,34.0,-100.00,NNE,13,3.0,4.0,81,0.00,,,0.00,0.000000,,2013-10-25 08:41:00,
2013-10-25 08:51:00,39.0,34.0,-100.00,NNE,13,3.0,4.0,81,0.00,,,0.00,0.000000,,2013-10-25 08:51:00,
2013-10-25 09:21:00,40.0,33.0,-100.00,NNE,22,3.0,5.0,77,0.00,,,0.00,0.000000,,2013-10-25 09:21:00,
2013-10-25 09:32:00,40.0,33.0,-100.00,NNE,22,3.0,5.0,77,0.00,,,0.00,0.000000,,2013-10-25 09:32:00,
2013-10-25 09:42:00,40.0,33.0,-100.00,NNE,22,3.0,5.0,77,0.00,,,0.00,0.000000,,2013-10-25 09:42:00,
2013-10-25 09:52:00,40.0,33.0,-100.00,NNE,22,3.0,5.0,77,0.00,,,0.00,0.000000,,2013-10-25 09:52:00,
2013-10-25 10:22:00,38.0,32.0,-100.00,NNE,22,3.0,5.0,78,0.00,,,0.00,0.000000,,2013-10-25 10:22:00,
2013-10-25 10:32:00,38.0,32.0,-100.00,NNE,22,3.0,5.0,78,0.00,,,0.00,0.000000,,2013-10-25 10:32:00,
2013-10-25 10:41:00,38.0,32.0,-100.00,NNE,22,3.0,5.0,78,0.00,,,0.00,0.000000,,2013-10-25 10:41:00,
2013-10-25 10:51:00,38.0,32.0,-100.00,NNE,22,3.0,5.0,78,0.00,,,0.00,0.000000,,2013-10-25 10:51:00,
2013-10-25 11:21:00,39.0,34.0,-100.00,NNE,12,2.0,6.0,81,0.00,,,0.00,0.000000,,2013-10-25 11:21:00,
2013-10-25 11:32:00,39.0,34.0,-100.00,NNE,12,2.0,6.0,81,0.00,,,0.00,0.000000,,2013-10-25 11:32:00,
2013-10-25 11:41:00,39.0,34.0,-100.00,NNE,12,2.0,6.0,81,0.00,,,0.00,0.000000,,2013-10-25 11:41:00,
2013-10-25 11:51:00,39.0,34.0,-100.00,NNE,12,2.0,6.0,81,0.00,,,0.00,0.000000,,2013-10-25 11:51:00,
2013-10-25 12:21:00,38.0,34.0,-100.00,NNE,12,3.0,5.0,84,0.00,,,0.00,0.000000,,2013-10-25 12:21:00,
2013-10-25 12:31:00,38.0,34.0,-100.00,NNE,12,3.0,5.0,84,0.00,,,0.00,0.000000,,2013-10-25 12:31:00,
2013-10-25 12:41:00,38.0,34.0,-100.00,NNE,12,3.0,5.0,84,0.00,,,0.00,0.000000,,2013-10-25 12:41:00,
2013-10-25 12:51:00,38.0,34.0,-100.00,NNE,12,3.0,5.0,84,0.00,,,0.00,0.000000,,2013-10-25 12:51:00,
2013-10-25 13:21:00,39.0,35.0,-100.00,NNE,25,3.0,5.0,84,0.00,,,0.00,0.000000,,2013-10-25 13:21:00,
2013-10-25 13:32:00,39.0,35.0,-100.00,NNE,25,3.0,5.0,84,0.00,,,0.00,0.000000,,2013-10-25 13:32:00,
2013-10-25 13:41:00,39.0,35.0,-100.00,NNE,25,3.0,5.0,84,0.00,,,0.00,0.000000,,2013-10-25 13:41:00,
2013-10-25 13:52:00,39.0,35.0,-100.00,NNE,25,3.0,5.0,84,0.00,,,0.00,0.000000,,2013-10-25 13:52:00,
2013-10-25 14:22:00,39.0,35.0,-100.00,NNE,33,2.0,4.0,85,0.00,,,0.00,8.000000,,2013-10-25 14:22:00,
2013-10-25 14:32:00,39.0,35.0,-100.00,NNE,33,2.0,4.0,85,0.00,,,0.00,8.000000,,2013-10-25 14:32:00,
2013-10-25 14:42:00,39.0,35.0,-100.00,NNE,33,2.0,4.0,85,0.00,,,0.00,8.000000,,2013-10-25 14:42:00,
2013-10-25 14:52:00,39.0,35.0,-100.00,NNE,33,2.0,4.0,85,0.00,,,0.00,8.000000,,2013-10-25 14:52:00,
2013-10-25 15:21:00,48.0,38.0,-100.00,NNW,335,2.0,4.0,69,0.00,,,0.00,119.000000,,2013-10-25 15:21:00,
2013-10-25 15:33:00,48.0,38.0,-100.00,NNW,335,2.0,4.0,69,0.00,,,0.00,119.000000,,2013-10-25 15:33:00,
2013-10-25 16:23:00,49.0,39.0,-100.00,SSW,205,5.0,7.0,67,0.00,,,0.00,344.000000,,2013-10-25 16:23:00,
2013-10-25 16:33:00,49.0,39.0,-100.00,SSW,205,5.0,7.0,67,0.00,,,0.00,344.000000,,2013-10-25 16:33:00,
2013-10-25 16:43:00,49.0,39.0,-100.00,SSW,205,5.0,7.0,67,0.00,,,0.00,344.000000,,2013-10-25 16:43:00,
2013-10-25 16:53:00,49.0,39.0,-100.00,SSW,205,5.0,7.0,67,0.00,,,0.00,344.000000,,2013-10-25 16:53:00,
2013-10-25 17:23:00,52.0,39.0,-100.00,SSW,211,4.0,8.0,60,0.00,,,0.00,492.000000,,2013-10-25 17:23:00,
2013-10-25 17:33:00,52.0,39.0,-100.00,SSW,211,4.0,8.0,60,0.00,,,0.00,492.000000,,2013-10-25 17:33:00,
2013-10-25 17:43:00,52.0,39.0,-100.00,SSW,211,4.0,8.0,60,0.00,,,0.00,492.000000,,2013-10-25 17:43:00,
2013-10-25 17:52:00,52.0,39.0,-100.00,SSW,211,4.0,8.0,60,0.00,,,0.00,492.000000,,2013-10-25 17:52:00,
2013-10-25 18:22:00,55.0,39.0,-100.00,WSW,239,5.0,8.0,55,0.00,,,0.00,588.000000,,2013-10-25 18:22:00,
2013-10-25 18:32:00,55.0,39.0,-100.00,WSW,239,5.0,8.0,55,0.00,,,0.00,588.000000,,2013-10-25 18:32:00,
2013-10-25 18:42:00,55.0,39.0,-100.00,WSW,239,5.0,8.0,55,0.00,,,0.00,588.000000,,2013-10-25 18:42:00,
2013-10-25 18:52:00,55.0,39.0,-100.00,WSW,239,5.0,8.0,55,0.00,,,0.00,588.000000,,2013-10-25 18:52:00,
2013-10-25 19:22:00,58.0,39.0,-100.00,West,262,6.0,12.0,49,0.00,,,0.00,628.000000,,2013-10-25 19:22:00,
2013-10-25 19:32:00,58.0,39.0,-100.00,West,262,6.0,12.0,49,0.00,,,0.00,628.000000,,2013-10-25 19:32:00,
2013-10-25 19:42:00,58.0,39.0,-100.00,West,262,6.0,12.0,49,0.00,,,0.00,628.000000,,2013-10-25 19:42:00,
2013-10-25 19:52:00,58.0,39.0,-100.00,West,262,6.0,12.0,49,0.00,,,0.00,628.000000,,2013-10-25 19:52:00,
2013-10-25 20:22:00,62.0,38.0,-100.00,WNW,290,7.0,12.0,41,0.00,,,0.00,612.000000,,2013-10-25 20:22:00,
2013-10-25 20:32:00,62.0,38.0,-100.00,WNW,290,7.0,12.0,41,0.00,,,0.00,612.000000,,2013-10-25 20:32:00,
2013-10-25 20:42:00,62.0,38.0,-100.00,WNW,290,7.0,12.0,41,0.00,,,0.00,612.000000,,2013-10-25 20:42:00,
2013-10-25 20:52:00,62.0,38.0,-100.00,WNW,290,7.0,12.0,41,0.00,,,0.00,612.000000,,2013-10-25 20:52:00,
2013-10-25 21:22:00,65.0,39.0,-100.00,West,281,6.0,12.0,39,0.00,,,0.00,536.000000,,2013-10-25 21:22:00,
2013-10-25 21:34:00,65.0,39.0,-100.00,West,281,6.0,12.0,39,0.00,,,0.00,536.000000,,2013-10-25 21:34:00,
2013-10-25 21:43:00,65.0,39.0,-100.00,West,281,6.0,12.0,39,0.00,,,0.00,536.000000,,2013-10-25 21:43:00,
2013-10-25 21:54:00,65.0,39.0,-100.00,West,281,6.0,12.0,39,0.00,,,0.00,536.000000,,2013-10-25 21:54:00,
2013-10-25 22:23:00,67.0,38.0,-100.00,WNW,282,4.0,9.0,34,0.00,,,0.00,67.000000,,2013-10-25 22:23:00,
2013-10-25 22:34:00,67.0,38.0,-100.00,WNW,282,4.0,9.0,34,0.00,,,0.00,67.000000,,2013-10-25 22:34:00,
2013-10-25 22:42:00,67.0,38.0,-100.00,WNW,282,4.0,9.0,34,0.00,,,0.00,67.000000,,2013-10-25 22:42:00,
2013-10-25 22:52:00,67.0,38.0,-100.00,WNW,282,4.0,9.0,34,0.00,,,0.00,67.000000,,2013-10-25 22:52:00,
2013-10-25 23:22:00,67.0,35.0,-100.00,WNW,303,5.0,13.0,31,0.00,,,0.00,25.000000,,2013-10-25 23:22:00,
2013-10-25 23:34:00,67.0,35.0,-100.00,WNW,303,5.0,13.0,31,0.00,,,0.00,25.000000,,2013-10-25 23:34:00,
2013-10-25 23:42:00,67.0,35.0,-100.00,WNW,303,5.0,13.0,31,0.00,,,0.00,25.000000,,2013-10-25 23:42:00,
2013-10-25 23:52:00,67.0,35.0,-100.00,WNW,303,5.0,13.0,31,0.00,,,0.00,25.000000,,2013-10-25 23:52:00,